Toccoa Rg Letourneau Field, T, GA

5:46 PM EDT on June 25, 2017 (GMT -0400)
Toccoa-Letourneau

Weather History for KTOC - March, 2014

Change the Weather History Date:

Sunday, March 9, 2014

  Actual Average Record
Temperature  
Mean Temperature 62 °F -  
Max Temperature 75 °F 63 °F 78 °F (2017)
Min Temperature 49 °F 38 °F 44 °F (2017)
Degree Days  
Heating Degree Days 3    
Growing Degree Days 12 (Base 50)    
Moisture  
Dew Point 38 °F    
Average Humidity 42    
Maximum Humidity 72    
Minimum Humidity 25    
Precipitation  
Precipitation 0.00 in - - ()
Sea Level Pressure  
Sea Level Pressure 30.07 in    
Wind  
Wind Speed 6 mph (West)    
Max Wind Speed 14 mph    
Max Gust Speed 21 mph    
Visibility 10 miles    
Events      
Averages and records for this station are not official NWS values.
T = Trace of Precipitation, MM = Missing Value Source: NWS Daily Summary

Daily Weather History Graph

Daily Weather History Graph

Search for Another Location

Airport or City:

Trip Planner

Search our weather history database for the weather conditions in past years. The results will help you decide how hot, cold, wet, or windy it might be!

Date:

Astronomy

Mar. 09, 2014 Rise Set
Actual Time 7:51 AM EDT 7:35 PM EDT
Civil Twilight 7:26 AM EDT 8:01 PM EDT
Nautical Twilight 6:57 AM EDT 8:30 PM EDT
Astronomical Twilight 6:28 AM EDT 8:59 PM EDT
Moon 1:38 PM EDT (3/9) 3:06 AM EDT (3/9)
Length of Visible Light 12h 34m
Length of Day
11h 44m
First Quarter, 61% of the Moon is Illuminated
Mar 9
First Quarter
Mar 16
Full
Mar 23
Last Quarter
Mar 30
New
Apr 7
First Quarter

Hourly Weather History & Observations

Time (EDT) Temp. Dew Point Humidity Pressure Visibility Wind Dir Wind Speed Gust Speed Precip Events Conditions
12:15 AM 58.5 °F 40.6 °F 52% 30.08 in 10.0 mi West 4.6 mph - N/A   Clear
12:35 AM 57.7 °F 40.3 °F 52% 30.07 in 10.0 mi West 3.5 mph - N/A   Clear
12:55 AM 56.8 °F 40.3 °F 54% 30.07 in 10.0 mi West 4.6 mph - N/A   Clear
1:15 AM 56.7 °F 39.4 °F 52% 30.07 in 10.0 mi West 4.6 mph - N/A   Clear
1:35 AM 55.4 °F 39.2 °F 54% 30.07 in 10.0 mi WSW 4.6 mph - N/A   Clear
1:55 AM 54.9 °F 39.4 °F 56% 30.07 in 10.0 mi WSW 5.8 mph - N/A   Clear
3:15 AM 52.9 °F 40.1 °F 62% 30.07 in 10.0 mi West 5.8 mph - N/A   Clear
3:35 AM 52.2 °F 40.3 °F 64% 30.07 in 10.0 mi WSW 5.8 mph - N/A   Clear
3:55 AM 51.1 °F 40.3 °F 67% 30.06 in 10.0 mi WSW 5.8 mph - N/A   Clear
4:15 AM 52.3 °F 40.1 °F 63% 30.06 in 10.0 mi West 4.6 mph - N/A   Clear
4:35 AM 53.8 °F 39.7 °F 59% 30.07 in 10.0 mi West 4.6 mph - N/A   Clear
4:55 AM 52.0 °F 40.1 °F 64% 30.06 in 10.0 mi West 4.6 mph - N/A   Clear
5:15 AM 52.9 °F 39.9 °F 61% 30.06 in 10.0 mi West 4.6 mph - N/A   Clear
5:35 AM 54.3 °F 39.6 °F 57% 30.06 in 10.0 mi West 4.6 mph - N/A   Clear
5:55 AM 53.8 °F 39.6 °F 59% 30.06 in 10.0 mi West 5.8 mph - N/A   Clear
6:15 AM 53.8 °F 39.4 °F 58% 30.07 in 10.0 mi Calm Calm - N/A   Clear
6:35 AM 54.0 °F 39.2 °F 57% 30.08 in 10.0 mi WNW 4.6 mph - N/A   Clear
6:55 AM 53.8 °F 39.6 °F 59% 30.09 in 10.0 mi West 5.8 mph - N/A   Clear
7:15 AM 53.8 °F 39.7 °F 59% 30.09 in 10.0 mi West 5.8 mph - N/A   Clear
7:35 AM 52.7 °F 40.3 °F 63% 30.10 in 10.0 mi West 4.6 mph - N/A   Clear
7:55 AM 49.8 °F 40.3 °F 70% 30.10 in 10.0 mi WSW 4.6 mph - N/A   Clear
8:15 AM 51.4 °F 41.5 °F 69% 30.11 in 10.0 mi WSW 5.8 mph - N/A   Clear
8:35 AM 50.7 °F 42.1 °F 72% 30.11 in 10.0 mi WSW 6.9 mph - N/A   Clear
8:55 AM 55.4 °F 43.0 °F 63% 30.11 in 10.0 mi WSW 6.9 mph - N/A   Clear
9:15 AM 57.2 °F 43.2 °F 59% 30.11 in 10.0 mi WSW 6.9 mph - N/A   Clear
9:35 AM 59.2 °F 43.3 °F 56% 30.12 in 10.0 mi WSW 6.9 mph - N/A   Clear
9:55 AM 61.3 °F 42.8 °F 51% 30.12 in 10.0 mi West 5.8 mph - N/A   Clear
10:15 AM 62.6 °F 41.2 °F 45% 30.12 in 10.0 mi West 5.8 mph - N/A   Clear
10:35 AM 63.9 °F 39.4 °F 41% 30.12 in 10.0 mi WNW 4.6 mph - N/A   Clear
10:55 AM 65.3 °F 37.2 °F 35% 30.12 in 10.0 mi West 8.1 mph - N/A   Clear
11:15 AM 66.4 °F 36.7 °F 33% 30.12 in 10.0 mi WNW 10.4 mph - N/A   Clear
11:35 AM 67.1 °F 37.6 °F 34% 30.12 in 10.0 mi NW 12.7 mph 19.6 mph N/A   Clear
11:55 AM 67.8 °F 38.3 °F 34% 30.11 in 10.0 mi WNW 6.9 mph 20.7 mph N/A   Clear
12:15 PM 69.1 °F 38.5 °F 33% 30.11 in 10.0 mi West 5.8 mph - N/A   Clear
12:35 PM 70.5 °F 38.8 °F 32% 30.10 in 10.0 mi WNW 10.4 mph - N/A   Clear
12:55 PM 71.4 °F 39.4 °F 31% 30.09 in 10.0 mi NNW 8.1 mph - N/A   Clear
1:15 PM 72.1 °F 39.9 °F 31% 30.09 in 10.0 mi WNW 9.2 mph - N/A   Clear
1:35 PM 72.1 °F 39.9 °F 31% 30.08 in 10.0 mi West 6.9 mph - N/A   Clear
1:55 PM 73.0 °F 41.2 °F 32% 30.07 in 10.0 mi NW 5.8 mph - N/A   Clear
2:15 PM 73.2 °F 41.4 °F 32% 30.07 in 10.0 mi WSW 9.2 mph 20.7 mph N/A   Clear
2:35 PM 74.1 °F 41.4 °F 31% 30.06 in 10.0 mi NW 11.5 mph - N/A   Clear
2:55 PM 73.9 °F 40.3 °F 30% 30.04 in 10.0 mi West 5.8 mph 16.1 mph N/A   Clear
3:15 PM 75.4 °F 40.8 °F 29% 30.04 in 10.0 mi WNW 11.5 mph 18.4 mph N/A   Clear
3:35 PM 75.2 °F 40.5 °F 29% 30.04 in 10.0 mi West 11.5 mph 17.3 mph N/A   Clear
3:55 PM 75.6 °F 39.9 °F 28% 30.03 in 10.0 mi West 10.4 mph 17.3 mph N/A   Clear
4:15 PM 75.2 °F 39.2 °F 27% 30.03 in 10.0 mi NW 10.4 mph 18.4 mph N/A   Clear
4:35 PM 74.7 °F 38.5 °F 27% 30.03 in 10.0 mi West 13.8 mph 18.4 mph N/A   Clear
4:55 PM 74.3 °F 37.8 °F 27% 30.02 in 10.0 mi WNW 10.4 mph 19.6 mph N/A   Clear
5:15 PM 73.8 °F 36.9 °F 26% 30.02 in 10.0 mi West 10.4 mph 19.6 mph N/A   Clear
5:35 PM 74.3 °F 36.3 °F 25% 30.02 in 10.0 mi West 6.9 mph 17.3 mph N/A   Clear
5:55 PM 73.6 °F 35.6 °F 25% 30.02 in 10.0 mi WNW 8.1 mph 16.1 mph N/A   Clear
6:20 PM 71.8 °F 34.9 °F 26% 30.02 in 10.0 mi West 8.1 mph 20.7 mph N/A   Clear
6:35 PM 71.8 °F 33.6 °F 25% 30.02 in 10.0 mi West 8.1 mph 18.4 mph N/A   Clear
6:55 PM 70.3 °F 34.7 °F 27% 30.03 in 10.0 mi West 9.2 mph 18.4 mph N/A   Clear
7:15 PM 68.9 °F 34.0 °F 28% 30.03 in 10.0 mi WNW 5.8 mph - N/A   Clear
7:35 PM 67.6 °F 32.2 °F 27% 30.03 in 10.0 mi West 6.9 mph - N/A   Clear
7:55 PM 66.4 °F 32.0 °F 28% 30.04 in 10.0 mi West 6.9 mph - N/A   Clear
8:15 PM 65.3 °F 32.0 °F 29% 30.04 in 10.0 mi WNW 5.8 mph - N/A   Clear
8:35 PM 64.6 °F 31.8 °F 29% 30.04 in 10.0 mi West 8.1 mph - N/A   Clear
8:55 PM 64.0 °F 30.0 °F 28% 30.06 in 10.0 mi WNW 8.1 mph - N/A   Clear
9:15 PM 63.3 °F 30.2 °F 29% 30.07 in 10.0 mi NW 5.8 mph - N/A   Clear
9:35 PM 62.6 °F 30.9 °F 30% 30.07 in 10.0 mi NW 5.8 mph - N/A   Clear
9:55 PM 61.9 °F 31.1 °F 31% 30.07 in 10.0 mi WNW 6.9 mph - N/A   Clear
10:15 PM 61.2 °F 31.6 °F 33% 30.07 in 10.0 mi WNW 5.8 mph - N/A   Clear
10:35 PM 60.4 °F 32.0 °F 34% 30.08 in 10.0 mi WNW 5.8 mph - N/A   Clear
11:00 PM 59.5 °F 32.0 °F 35% 30.08 in 10.0 mi WNW 3.5 mph - N/A   Clear
11:15 PM 59.4 °F 32.0 °F 36% 30.08 in 10.0 mi West 4.6 mph - N/A   Clear
11:35 PM 59.0 °F 32.2 °F 36% 30.07 in 10.0 mi WNW 4.6 mph - N/A   Clear
11:55 PM 58.1 °F 32.5 °F 38% 30.07 in 10.0 mi Calm Calm - N/A   Clear
12:15 AM 57.0 °F 32.7 °F 40% 30.09 in 10.0 mi Calm Calm - N/A   Clear
12:35 AM 53.6 °F 33.6 °F 47% 30.09 in 10.0 mi Calm Calm - N/A   Clear
12:55 AM 53.4 °F 34.3 °F 48% 30.10 in 10.0 mi Calm Calm - N/A   Clear